Regional Weather Roundup
Issued by NWS Jackson, KY

Home | Current Version | Previous Version | Graphics & Text | Print | Product List | Glossary On
Versions: 1 2 3 4 5 6 7 8 9 10 11 12 13 14 15 16 17 18 19 20 21 22 23 24 25 26
000
ASUS43 KJKL 262310
RWRJKL

EAST KENTUCKY HOURLY WEATHER ROUNDUP
NATIONAL WEATHER SERVICE JACKSON KY
700 PM EDT WED JUL 26 2017

NOTE: "FAIR" INDICATES FEW OR NO CLOUDS BELOW 12,000 FEET WITH
NO SIGNIFICANT WEATHER AND/OR OBSTRUCTIONS TO VISIBILITY.

* THESE REPORTS ARE NOT UNDER NWS QUALITY CONTROL AND MAY NOT
  REPORT WEATHER SUCH AS PRECIPITATION AND FOG.

KYZ079-080-083-085-087-088-110-112-115-119-120-270000
...EASTERN KENTUCKY...

CITY           SKY/WX    TMP DP  RH WIND       PRES   REMARKS
JACKSON        SUNNY     86  69  56 VRB3      30.08F HX  90
LONDON         PTSUNNY   90  66  45 VRB3      30.06F HX  92
SOMERSET*      SUNNY     88  64  45 W7        30.05F
MONTICELLO*    SUNNY     89  76  65 CALM      30.06F HX 100
WILLIAMSBURG*  CLEAR     90  70  51 S3        30.06F HX  95
MIDDLESBORO*   SUNNY     88  73  61 CALM      30.07F HX  95
HARLAN APT*      N/A     88  64  45 CALM      30.09
PIKE CO APT*     N/A     83  67  58 N5        30.09S
BIG SANDY APT* CLEAR     85  67  53 CALM      30.08S
MOREHEAD APT*  CLEAR     84  68  58 CALM      30.08S
ASHLAND*       SUNNY     82  72  69 CALM      30.03S
$$

KYZ035-036-041-042-044-050-067-078-099-270000
...CENTRAL KENTUCKY...

CITY           SKY/WX    TMP DP  RH WIND       PRES   REMARKS
MT STERLING*   MOSUNNY   86  68  54 CALM      30.06F
FLEMING/MASON* SUNNY     82  67  60 CALM      30.06F
DANVILLE*      SUNNY     90  68  48 SW3       30.06S HX  93
LEXINGTON      MOSUNNY   88  68  51 SW3       30.05S HX  91
FRANKFORT      SUNNY     87  69  54 SW3       30.02F HX  91
LOUISVILLE     CLOUDY    91  73  55 SW9       30.00S HX  99
LEBANON*         N/A     90  68  48 S6        30.03S HX  93
GLASGOW*       CLOUDY    89  71  53 SW3       30.02F HX  95
BOWLING GREEN  PTSUNNY   91  73  55 SE6       30.00F HX  99
$$

KYZ091>093-OHZ055-061-077-WVZ005-015-034-035-042-270000
...SOUTHERN OHIO/WEST VIRGINIA...

CITY           SKY/WX    TMP DP  RH WIND       PRES   REMARKS
COVINGTON      CLOUDY    84  69  60 CALM      30.04F
COLUMBUS       CLOUDY    79  63  57 VRB6      30.05F
DAYTON         CLOUDY    79  61  53 SW8       30.06F
WILMINGTON     CLOUDY    78  67  68 S5        30.06S
HUNTINGTON     SUNNY     85  64  49 W5        30.04F
CHARLESTON     MOSUNNY   87  61  41 SW8       30.05F
PINEVILLE*     SUNNY     79  68  68 MISG      30.14F
BECKLEY        PTSUNNY   79  66  64 SE5       30.15S
BLUEFIELD      MOSUNNY   80  57  45 W7        30.18S
LOGAN CO APT*    N/A     84  59  42 CALM      30.09F
$$

VAZ002-007-008-TNZ017-027-036-066-071-270000
...SOUTHWEST VIRGINIA/EAST TENNESSEE...

CITY           SKY/WX    TMP DP  RH WIND       PRES   REMARKS
WISE*          CLOUDY    82  59  44 W7        30.18S
JONESVILLE*      N/A     90  66  45 CALM      30.10F HX  92
ABINGDON*      MOSUNNY   87  63  44 CALM      30.13S
BRISTOL        MOSUNNY   90  63  40 NW6       30.08F HX  91
MORRISTOWN*    CLEAR     90  68  48 NW6       30.06F HX  93
SEVIERVILLE*   PTCLDY    91  64  40 VRB3      30.04S HX  93
KNOXVILLE      MOSUNNY   92  67  43 VRB3      30.04F HX  95
LAFOLLETTE*    MOCLDY    88  72  58 CALM      30.09F HX  94
OAK RIDGE      SUNNY     91  69  48 VRB3      30.06S HX  96
CROSSVILLE     PTSUNNY   86  70  58 VRB6      30.11F HX  90
NASHVILLE      CLOUDY    94  71  47 SW5       30.02S HX 101
$$

...KEY TO REMARKS...
VSB - VISIBILITY IN MILES
WCI - WIND CHILL INDEX
HX  - HEAT INDEX

$$




USA.gov is the U.S. government's official web portal to all federal, state and local government web resources and services.